• In Czech Republic
  • List of Countries
  • For 7 days
  • Water Temperature
  • Satellite Maps
  • Weather Map
  • Weather Widgets
  • user-avatar
    Login

    Hourly Weather Inverness

    Today, 27 April, Friday

    Time Temperature Precipitation Wind Pressure Humidity
    00:00 +3°C° 0 mm 3 mps 751 mmHg 92%
    01:00 +3°C° 0 mm 3 mps 751 mmHg 92%
    02:00 +4°C° 0 mm 2 mps 751 mmHg 92%
    03:00 +4°C° 0 mm 2 mps 751 mmHg 92%
    04:00 +3°C° 0 mm 3 mps 751 mmHg 91%
    05:00 +3°C° 0 mm 3 mps 751 mmHg 90%
    06:00 +4°C° 0 mm 3 mps 751 mmHg 89%
    07:00 +5°C° 0.1 mm 3 mps 751 mmHg 81%
    08:00 +7°C° 0.1 mm 3 mps 751 mmHg 73%
    09:00 +8°C° 0.1 mm 3 mps 751 mmHg 66%
    10:00 +9°C° 0.2 mm 3 mps 751 mmHg 62%
    11:00 +10°C° 0.2 mm 3 mps 752 mmHg 58%
    12:00 +10°C° 0.2 mm 4 mps 752 mmHg 54%
    13:00 +10°C° 0.3 mm 3 mps 752 mmHg 56%
    14:00 +10°C° 0.3 mm 3 mps 752 mmHg 58%
    15:00 +10°C° 0.3 mm 3 mps 752 mmHg 59%
    16:00 +9°C° 0.4 mm 3 mps 752 mmHg 63%
    17:00 +8°C° 0.4 mm 3 mps 752 mmHg 67%
    18:00 +8°C° 0.4 mm 2 mps 752 mmHg 71%
    19:00 +7°C° 0.1 mm 2 mps 752 mmHg 76%
    20:00 +7°C° 0.1 mm 1 mps 753 mmHg 81%
    21:00 +5°C° 0.1 mm 1 mps 753 mmHg 86%
    22:00 +5°C° 0 mm 1 mps 753 mmHg 87%
    23:00 +4°C° 0 mm 1 mps 753 mmHg 88%

    Tomorrow, 28 April, Saturday

    Time Temperature Precipitation Wind Pressure Humidity
    00:00 +4°C° 0 mm 1 mps 754 mmHg 89%
    01:00 +4°C° 0 mm 1 mps 754 mmHg 90%
    02:00 +3°C° 0 mm 1 mps 754 mmHg 90%
    03:00 +3°C° 0 mm 1 mps 754 mmHg 91%
    04:00 +4°C° 0 mm 1 mps 754 mmHg 89%
    05:00 +4°C° 0 mm 1 mps 755 mmHg 88%
    06:00 +4°C° 0 mm 1 mps 755 mmHg 87%
    07:00 +6°C° 0 mm 1 mps 755 mmHg 83%
    08:00 +6°C° 0 mm 2 mps 755 mmHg 79%
    09:00 +7°C° 0 mm 2 mps 756 mmHg 75%
    10:00 +8°C° 0.2 mm 2 mps 756 mmHg 72%
    11:00 +9°C° 0.2 mm 3 mps 756 mmHg 69%
    12:00 +9°C° 0.2 mm 3 mps 756 mmHg 66%
    13:00 +9°C° 0.3 mm 3 mps 756 mmHg 65%
    14:00 +9°C° 0.3 mm 3 mps 756 mmHg 64%
    15:00 +8°C° 0.3 mm 4 mps 756 mmHg 64%
    16:00 +8°C° 0.3 mm 4 mps 756 mmHg 66%
    17:00 +8°C° 0.3 mm 3 mps 756 mmHg 67%
    18:00 +8°C° 0.3 mm 3 mps 757 mmHg 69%
    19:00 +5°C° 0 mm 3 mps 757 mmHg 74%
    20:00 +5°C° 0 mm 2 mps 757 mmHg 80%
    21:00 +5°C° 0 mm 1 mps 758 mmHg 85%
    22:00 +4°C° 0 mm 1 mps 758 mmHg 87%
    23:00 +4°C° 0 mm 1 mps 758 mmHg 89%

    Day after tomorrow, 29 April, Sunday

    Time Temperature Precipitation Wind Pressure Humidity
    00:00 +3°C° 0 mm 1 mps 758 mmHg 91%
    01:00 +3°C° 0 mm 1 mps 758 mmHg 92%
    02:00 +3°C° 0 mm 1 mps 758 mmHg 93%
    03:00 +2°C° 0 mm 1 mps 759 mmHg 94%
    04:00 +3°C° 0 mm 1 mps 759 mmHg 92%
    05:00 +4°C° 0 mm 1 mps 759 mmHg 91%
    06:00 +4°C° 0 mm 1 mps 759 mmHg 90%
    07:00 +4°C° 0 mm 2 mps 759 mmHg 83%
    08:00 +6°C° 0 mm 2 mps 760 mmHg 76%
    09:00 +7°C° 0 mm 2 mps 760 mmHg 69%
    10:00 +8°C° 0 mm 2 mps 760 mmHg 63%
    11:00 +9°C° 0 mm 2 mps 760 mmHg 56%
    12:00 +10°C° 0 mm 2 mps 760 mmHg 50%
    13:00 +10°C° 0 mm 2 mps 760 mmHg 50%
    14:00 +10°C° 0 mm 3 mps 760 mmHg 49%
    15:00 +10°C° 0 mm 3 mps 760 mmHg 49%
    16:00 +9°C° 0.1 mm 3 mps 760 mmHg 52%
    17:00 +9°C° 0.1 mm 3 mps 760 mmHg 55%
    18:00 +8°C° 0.1 mm 3 mps 760 mmHg 59%
    19:00 +6°C° 0 mm 2 mps 760 mmHg 67%
    20:00 +5°C° 0 mm 2 mps 761 mmHg 75%
    21:00 +4°C° 0 mm 1 mps 761 mmHg 83%
    22:00 +3°C° 0 mm 1 mps 761 mmHg 84%
    23:00 +3°C° 0 mm 1 mps 761 mmHg 86%

    30 April, Monday

    Time Temperature Precipitation Wind Pressure Humidity
    00:00 +2°C° 0 mm 1 mps 761 mmHg 88%
    01:00 +2°C° 0 mm 1 mps 761 mmHg 88%
    02:00 +2°C° 0 mm 1 mps 761 mmHg 89%
    03:00 +2°C° 0 mm 1 mps 761 mmHg 90%
    04:00 +3°C° 0 mm 1 mps 761 mmHg 87%
    05:00 +3°C° 0 mm 1 mps 761 mmHg 84%
    06:00 +4°C° 0 mm 1 mps 761 mmHg 81%
    07:00 +5°C° 0 mm 1 mps 760 mmHg 71%
    08:00 +6°C° 0 mm 2 mps 760 mmHg 61%
    09:00 +8°C° 0 mm 2 mps 760 mmHg 51%
    10:00 +9°C° 0 mm 2 mps 760 mmHg 49%
    11:00 +9°C° 0 mm 2 mps 760 mmHg 46%
    12:00 +10°C° 0 mm 3 mps 759 mmHg 44%
    13:00 +10°C° 0 mm 2 mps 759 mmHg 44%
    14:00 +10°C° 0 mm 2 mps 759 mmHg 44%
    15:00 +10°C° 0 mm 2 mps 758 mmHg 45%
    16:00 +10°C° 0 mm 2 mps 758 mmHg 48%
    17:00 +10°C° 0 mm 2 mps 758 mmHg 51%
    18:00 +9°C° 0 mm 2 mps 757 mmHg 54%
    19:00 +8°C° 0 mm 1 mps 757 mmHg 61%
    20:00 +6°C° 0 mm 1 mps 757 mmHg 69%
    21:00 +5°C° 0 mm 1 mps 757 mmHg 77%
    22:00 +4°C° 0 mm 1 mps 756 mmHg 78%
    23:00 +4°C° 0 mm 1 mps 756 mmHg 79%

    1 May, Tuesday

    Time Temperature Precipitation Wind Pressure Humidity
    00:00 +3°C° 0 mm 1 mps 756 mmHg 80%
    01:00 +3°C° 0 mm 1 mps 755 mmHg 80%
    02:00 +3°C° 0 mm 1 mps 755 mmHg 80%
    03:00 +3°C° 0 mm 1 mps 754 mmHg 80%
    04:00 +2°C° 0 mm 2 mps 754 mmHg 77%
    05:00 +3°C° 0 mm 2 mps 754 mmHg 74%
    06:00 +4°C° 0 mm 2 mps 753 mmHg 71%
    07:00 +6°C° 0 mm 2 mps 753 mmHg 60%
    08:00 +8°C° 0 mm 3 mps 753 mmHg 50%
    09:00 +10°C° 0 mm 3 mps 752 mmHg 40%
    10:00 +11°C° 0 mm 4 mps 752 mmHg 40%
    11:00 +10°C° 0 mm 5 mps 751 mmHg 41%
    12:00 +12°C° 0 mm 5 mps 751 mmHg 41%
    13:00 +11°C° 0 mm 6 mps 751 mmHg 43%
    14:00 +11°C° 0 mm 6 mps 750 mmHg 45%
    15:00 +11°C° 0 mm 7 mps 750 mmHg 47%
    16:00 +10°C° 0.1 mm 6 mps 750 mmHg 55%
    17:00 +9°C° 0.1 mm 6 mps 749 mmHg 62%
    18:00 +8°C° 0.1 mm 6 mps 749 mmHg 69%
    19:00 +8°C° 0.3 mm 5 mps 749 mmHg 75%
    20:00 +7°C° 0.3 mm 5 mps 749 mmHg 81%
    21:00 +6°C° 0.3 mm 5 mps 750 mmHg 86%
    22:00 +6°C° 0.3 mm 4 mps 750 mmHg 86%
    23:00 +5°C° 0.3 mm 4 mps 750 mmHg 87%

    2 May, Wednesday

    Time Temperature Precipitation Wind Pressure Humidity
    00:00 +5°C° 0.3 mm 4 mps 751 mmHg 87%
    01:00 +4°C° 0.1 mm 4 mps 751 mmHg 86%
    02:00 +3°C° 0.1 mm 4 mps 751 mmHg 85%
    03:00 +1°C° 0.1 mm 4 mps 752 mmHg 85%
    04:00 +1°C° 0 mm 4 mps 752 mmHg 83%
    05:00 +3°C° 0 mm 4 mps 753 mmHg 82%
    06:00 +3°C° 0 mm 5 mps 753 mmHg 80%
    07:00 +5°C° 0 mm 5 mps 754 mmHg 72%
    08:00 +5°C° 0 mm 6 mps 754 mmHg 64%
    09:00 +7°C° 0 mm 6 mps 755 mmHg 56%
    10:00 +8°C° 0 mm 6 mps 755 mmHg 54%
    11:00 +9°C° 0 mm 6 mps 756 mmHg 52%
    12:00 +10°C° 0 mm 6 mps 756 mmHg 50%
    13:00 +10°C° 0.1 mm 6 mps 757 mmHg 53%
    14:00 +9°C° 0.1 mm 6 mps 757 mmHg 56%
    15:00 +9°C° 0.1 mm 6 mps 757 mmHg 59%
    16:00 +9°C° 0 mm 6 mps 757 mmHg 60%
    17:00 +8°C° 0 mm 5 mps 758 mmHg 61%
    18:00 +8°C° 0 mm 5 mps 758 mmHg 62%
    19:00 +7°C° 0 mm 4 mps 758 mmHg 68%
    20:00 +7°C° 0 mm 3 mps 759 mmHg 74%
    21:00 +4°C° 0 mm 3 mps 759 mmHg 80%
    22:00 +5°C° 0 mm 3 mps 759 mmHg 81%
    23:00 +5°C° 0 mm 3 mps 759 mmHg 82%
    Show more